[ hide orbit diagram ]
For accurate long-term ephemerides, please instead use our Horizons system.This orbit viewer was implemented using two-body methods, and hence should not be used for determining accurate long-term trajectories (over several years or decades) or planetary encounter circumstances.
Orbital Elements at Epoch 2459200.5 (2020-Dec-17.0) TDB
Reference: JPL 18 (heliocentric ecliptic J2000)
Element | Value | Uncertainty (1-sigma) | Units |
e | .1753801181131394 | 5.4978e-08 | |
a | 2.181932072780743 | 8.3418e-09 | au |
q | 1.79926456814161 | 1.2169e-07 | au |
i | .9888484357192837 | 4.3771e-06 | deg |
node | 47.92919138502788 | 0.00034122 | deg |
peri | 307.907594131394 | 0.00034139 | deg |
M | 214.7291859318221 | 1.2067e-05 | deg |
tp | 2459675.546514073538 (2022-Apr-06.04651407) | 4.0749e-05 | TDB |
period | 1177.227140657535 3.22 | 6.751e-06 1.848e-08 | d yr |
n | .3058033471764197 | 1.7537e-09 | deg/d |
Q | 2.564599577419877 | 9.8047e-09 | au |
|
| | Orbit Determination Parameters
Additional Information
|
[ hide covariance matrix ]
Orbital Elements at Epoch 2456619.5 (2013-Nov-23.0) TDB
Reference: JPL 18 (heliocentric ecliptic J2000)
Element | Value | Uncertainty (1-sigma) | Units |
e | .1757952627937932 | 5.5125e-08 | |
q | 1.798381893285424 | 1.221e-07 | au |
tp | 2456142.882491054230 (2012-Aug-03.38249105) | 3.4928e-05 | TDB |
node | 47.91718105362602 | 0.00034071 | deg |
peri | 307.819372106615 | 0.00034089 | deg |
i | .9903405138084886 | 4.3803e-06 | deg |
|
| | Orbit Determination Parameters
Additional Information
|
Orbit Covariance (6×6)
|
|
e |
q |
tp |
node |
peri |
i |
e |
3.038749967658409E-15 |
-6.720484537940717E-15 |
-5.483180761191003E-13 |
-1.427094251961563E-14 |
-2.031491804491811E-13 |
-1.208034625377817E-15 |
q |
-6.720484537940717E-15 |
1.490753740104209E-14 |
1.197276318885372E-12 |
3.237093699321305E-14 |
4.473866985072212E-13 |
2.699467279318901E-15 |
tp |
-5.483180761191003E-13 |
1.197276318885372E-12 |
1.219976306170588E-9 |
-7.270309255681656E-13 |
4.218089998680569E-10 |
4.653775970407931E-13 |
node |
-1.427094251961563E-14 |
3.237093699321305E-14 |
-7.270309255681656E-13 |
1.160858304948873E-7 |
-1.160680459270016E-7 |
-6.922976624117223E-10 |
peri |
-2.031491804491811E-13 |
4.473866985072212E-13 |
4.218089998680569E-10 |
-1.160680459270016E-7 |
1.162065716408557E-7 |
6.923577282458232E-10 |
i |
-1.208034625377817E-15 |
2.699467279318901E-15 |
4.653775970407931E-13 |
-6.922976624117223E-10 |
6.923577282458232E-10 |
1.918740845706686E-11 |
|
Physical Parameter Table
Parameter |
Symbol |
Value |
Units |
Sigma |
Reference |
Notes |
absolute magnitude |
H |
17.05 |
|
n/a |
E2021B10 |
|
|
80106 (1999 RV26) Discovered 1999-Sep-07 by LINEAR at Socorro |
Reference: 20040504/Numbers.arc | Last Updated: 2004-07-16 |
|
|